RH
21 25 18 23 40 38 45 55 53 56 58 57 60 62 65 67 63 74 73 66 64 64 55 47 44 40 41 40 38 35 33 28 23 21 19 16 15 14 14 15 13 10 9 11 11 12 12 13 13
16 13 22 17 25 43 50 58 60 63 66 64 61 60 63 73 64 67 67 63 57 55 48 46 41 40 42 40 35 31 26 20 20 18 17 15 12 10 10 7 8 8 8 8 8 8 8 10 12
20 17 14 19 18 39 52 58 64 62 61 61 61 59 59 68 62 54 56 60 57 52 47 46 43 41 41 33 25 19 17 18 18 17 14 11 10 10 7 9 10 10 10 11 11 10 9 9 8
21 21 30 32 32 40 49 52 54 56 59 59 49 48 48 40 40 42 44 45 45 44 45 45 43 34 27 18 17 18 18 17 16 12 10 9 10 8 9 12 15 16 17 17 17 17 15 15 15
36 16 35 40 43 43 52 58 49 53 58 57 48 49 46 51 37 40 40 38 38 38 40 34 28 18 16 18 18 16 15 12 9 8 10 11 10 11 14 16 17 18 20 22 22 24 24 24 23
34 31 42 58 59 56 61 62 55 56 55 52 49 46 39 42 26 31 32 28 28 23 20 18 17 17 16 14 11 10 7 7 7 9 11 12 16 19 20 22 24 26 28 29 30 31 31 32 32
23 38 44 41 63 62 58 56 53 52 50 52 50 39 37 38 27 28 26 15 16 17 17 18 17 15 13 7 5 5 6 8 11 14 19 23 25 27 28 31 30 30 29 30 31 31 32 33 34
34 37 42 46 63 59 55 51 48 46 46 44 37 29 30 27 25 25 23 17 18 18 19 21 21 17 12 8 8 9 13 17 21 25 28 31 32 32 32 33 33 32 33 32 32 32 33 33 33
41 39 44 47 49 52 48 39 37 40 37 30 28 26 24 22 21 21 20 20 20 23 25 24 19 19 19 18 19 22 24 26 28 32 34 35 38 39 36 36 36 36 36 35 36 35 35 35 34
35 33 36 46 45 42 38 34 28 29 30 30 29 27 26 22 21 20 21 22 23 24 26 26 18 19 21 25 27 29 32 36 37 39 37 37 40 40 40 40 38 36 37 37 37 35 36 36 35
32 28 27 31 35 31 30 24 18 15 21 16 17 21 24 24 26 24 20 19 25 33 38 36 28 20 21 27 34 36 38 39 40 40 41 40 40 41 41 41 38 37 36 37 37 37 37 37 39
26 24 23 26 26 24 23 18 9 9 14 15 18 21 25 28 24 20 20 30 39 42 45 44 37 32 31 29 35 38 39 41 42 42 42 39 41 42 42 44 45 44 41 40 39 39 38 37 36
27 26 24 23 21 19 19 10 7 10 14 18 21 24 24 28 28 26 28 32 39 42 46 49 47 42 44 35 44 46 43 47 48 48 44 41 43 45 47 50 50 49 47 43 41 41 39 36 36
27 24 17 21 23 20 10 8 10 13 15 21 22 23 24 29 32 32 33 36 38 40 48 50 56 57 57 53 54 58 59 57 54 52 52 49 48 50 52 53 51 51 49 47 45 44 42 41 39
23 21 8 12 14 6 7 11 16 19 22 24 24 23 26 29 33 34 36 36 39 41 46 44 55 63 61 62 62 64 62 63 58 54 52 56 56 60 60 58 54 53 52 52 50 50 50 49 46
16 14 18 23 21 17 12 21 27 24 24 26 26 25 26 30 35 43 48 46 46 47 53 57 65 65 67 62 67 64 61 63 59 57 62 61 63 63 63 57 57 56 56 59 59 55 48 48 50
26 25 26 25 28 25 24 28 26 27 25 29 30 28 30 35 40 45 48 48 49 52 60 73 83 74 74 71 63 61 63 62 64 68 70 71 72 66 62 63 64 60 63 61 56 51 44 39 36
33 29 26 28 30 26 29 27 25 24 29 27 27 28 31 32 40 48 48 50 54 57 67 75 75 79 83 79 64 63 62 73 77 77 74 72 69 69 70 71 70 68 64 56 46 41 38 35 33
36 34 32 34 33 31 34 35 30 30 33 36 38 38 37 38 43 50 56 60 61 71 77 76 81 76 70 72 68 69 75 79 80 78 77 72 73 72 69 72 68 58 50 46 44 42 40 40 39
40 37 37 32 30 28 30 32 37 37 39 39 38 39 38 49 50 52 58 67 81 79 75 68 65 69 70 67 74 78 79 79 80 78 74 71 69 71 68 61 56 54 51 51 49 47 44 40 39
39 40 37 36 33 27 29 34 36 39 40 41 45 49 51 57 56 60 62 64 63 61 62 60 60 61 67 71 75 77 77 77 73 68 67 68 64 61 58 55 55 54 52 49 42 38 38 40 41
29 35 37 34 30 25 29 46 42 45 44 44 45 47 52 59 57 58 57 55 52 50 50 52 56 60 62 63 65 67 62 57 55 56 54 54 54 53 52 53 53 49 40 34 35 37 40 43 42
25 25 25 24 25 27 34 44 49 49 48 48 55 58 60 58 59 58 55 51 48 48 49 49 52 55 54 54 51 50 51 52 50 52 52 53 55 56 57 54 43 38 38 35 35 36 38 36 36
24 25 31 32 32 40 40 47 53 51 51 58 61 64 60 59 57 51 49 49 48 49 50 49 51 53 55 55 54 53 51 51 53 55 62 64 70 59 58 53 42 37 34 31 33 33 35 36 37
28 35 49 54 56 56 47 55 57 56 60 63 65 61 61 60 55 57 57 56 51 51 54 57 59 61 62 57 53 54 57 60 62 64 61 76 74 56 53 45 39 31 25 26 27 28 31 34 38
29 33 51 55 62 61 49 60 61 60 62 69 61 59 64 65 68 65 63 65 61 60 60 61 60 60 58 57 58 58 60 62 61 57 55 52 47 42 45 47 33 28 28 29 28 32 36 39 42
33 32 32 43 47 52 51 51 53 55 61 64 68 79 75 70 66 62 67 71 72 70 64 63 61 59 57 56 57 57 55 50 46 41 38 38 38 44 51 45 40 40 38 40 40 46 47 47 47
24 26 36 40 42 46 48 55 62 61 66 65 60 63 63 63 65 72 74 76 73 68 62 61 62 60 57 55 52 47 41 37 36 42 43 46 50 55 62 62 61 58 61 52 58 60 56 51 42
29 31 32 35 43 50 59 51 45 53 55 56 60 60 62 66 74 79 81 79 76 68 63 60 59 56 52 48 44 38 39 40 41 46 49 51 53 67 78 78 77 67 72 64 61 59 53 43 47
26 29 33 43 38 52 53 49 47 49 50 55 60 63 68 72 77 78 74 72 66 62 60 56 53 49 46 41 41 43 44 41 45 47 44 50 68 71 80 76 68 66 73 68 60 53 45 42 39